SCP
0 0 0 0 0 0 0 0 0 0 0 0 0 0 0 0 0 0 0 0 0 0 0 0 0 0 0 0 0 0 0 0 0 0 0 0 0 0 0 0 0 0 0
0 0 0 0 0 0 0 0 0 0 0 0 0 0 0 0 0 0 0 0 0 0 0 0 0 0 0 0 0 0 0 0 0 0 0 0 0 0 0 0 0 0 0
0 0 0 0 0 0 0 0 0 0 0 0 0 0 0 0 0 0 0 0 0 0 0 0 0 0 0 0 0 0 0 0 0 0 0 0 0 0 0 0 0 0 0
0 0 0 0 0 0 0 0 0 0 0 0 0 0 0 0 0 0 0 0 0 0 0 0 0 0 0 0 0 0 0 0 0 0 0 0 0 0 0 0 0 0 0
0 0 0 0 1 0 0 0 0 0 0 0 0 0 0 0 0 0 0 0 0 0 0 0 0 0 0 0 0 0 0 0 0 0 0 0 0 0 0 0 0 0 0
0 0 0 0 1 0 0 0 0 0 0 0 0 0 0 0 0 0 0 0 0 0 0 0 0 0 0 0 0 0 0 0 0 0 0 0 0 0 0 0 0 0 0
0 0 0 0 0 0 0 0 0 0 1 0 0 0 0 0 0 0 0 0 0 0 0 0 0 0 0 0 0 0 0 0 0 0 0 0 0 0 0 0 0 0 0
0 0 0 0 0 0 1 1 1 1 1 0 0 0 0 0 0 0 0 0 0 0 0 0 0 0 0 0 0 0 0 0 0 -0 0 0 0 0 0 0 0 0 0
0 0 0 0 0 1 1 1 1 1 1 0 0 0 0 0 0 0 0 0 0 0 0 0 0 0 0 0 0 0 0 0 0 -0 0 0 0 0 0 0 0 0 0
0 0 0 0 0 0 0 0 0 1 1 0 0 0 0 0 0 0 0 0 0 0 0 0 0 0 0 0 0 0 0 0 0 -0 0 0 0 0 0 0 0 0 0
0 0 0 0 0 0 0 0 0 0 0 0 0 0 0 0 0 0 0 0 0 0 0 0 0 0 0 0 0 0 0 0 0 0 0 0 0 0 0 0 0 0 0
0 0 0 0 0 0 0 0 0 0 0 0 0 0 0 0 0 0 0 0 0 0 0 0 0 0 0 0 0 0 0 0 0 0 0 0 0 0 0 0 0 0 0
0 0 0 0 0 0 0 0 0 0 0 0 0 0 0 0 0 0 0 0 0 0 0 0 0 0 0 0 0 0 0 0 0 0 0 0 0 0 0 0 0 0 0
0 0 0 0 0 0 0 0 0 0 0 0 0 0 0 0 0 0 0 0 0 0 0 0 0 0 0 0 0 0 0 0 0 0 0 0 0 0 0 0 0 0 0
0 0 0 0 0 0 0 0 0 0 0 0 0 0 0 0 0 0 0 0 0 0 0 0 0 0 0 0 0 0 0 0 0 0 0 0 0 0 0 0 0 0 0
0 0 0 0 0 0 0 0 0 0 0 0 0 0 0 0 0 0 0 0 0 0 0 0 0 0 0 0 0 0 0 0 0 0 0 0 0 0 0 0 0 0 0
0 0 0 0 0 0 0 0 0 0 0 0 0 0 0 0 0 0 0 0 0 0 0 0 0 0 0 0 0 0 0 0 0 0 0 0 0 0 0 0 0 0 0
0 0 0 0 0 0 0 0 0 0 0 0 0 0 0 0 0 0 0 0 0 0 0 0 0 0 0 0 0 0 0 0 0 0 0 0 0 0 0 0 0 0 0
0 0 0 0 0 0 0 0 0 0 0 0 0 0 0 0 0 0 0 0 0 0 0 0 0 0 0 0 0 0 0 0 0 0 0 0 0 0 0 0 0 0 0
0 0 0 0 0 0 0 0 0 0 0 0 0 0 0 0 0 0 0 0 0 0 0 0 0 0 0 0 0 0 0 0 0 0 0 0 0 0 0 0 0 0 0
0 0 0 0 0 0 0 0 0 0 0 0 0 0 0 0 0 0 0 0 0 0 0 0 0 0 0 0 0 0 0 0 0 0 0 0 0 0 0 0 0 0 0
0 0 0 0 0 0 0 0 0 0 0 0 0 0 0 0 0 0 0 0 0 0 0 0 0 0 0 0 0 0 0 0 0 0 0 0 0 0 0 0 0 0 0
0 0 0 0 0 0 0 0 0 0 0 0 0 0 0 0 0 0 0 0 0 0 0 0 0 0 0 0 0 0 0 0 0 0 0 0 0 0 0 0 0 0 0
0 0 0 0 0 0 0 0 0 0 0 0 0 0 0 0 0 0 0 0 0 0 0 0 0 0 0 0 0 0 0 0 0 0 0 0 0 0 0 0 0 0 0
0 0 0 0 0 0 0 0 0 0 0 0 0 0 0 0 0 0 0 0 0 0 0 0 0 0 0 0 0 0 0 0 0 0 0 0 0 0 0 0 0 0 0
0 0 0 0 0 0 0 0 0 0 0 0 0 0 0 0 0 0 0 0 0 0 0 0 0 0 0 0 0 0 0 0 0 0 0 0 0 0 0 0 0 0 0
Wind_Speed
4 5 10 12 13 13 13 13 13 13 13 13 13 14 14 14 15 15 14 15 15 15 16 16 16 16 16 16 17 17 17 16 16 16 16 16 16 16 16 16 14 10 17
7 6 11 12 13 13 13 13 12 12 13 13 13 13 14 14 14 14 14 14 14 15 15 15 15 15 15 15 15 15 15 15 15 14 14 13 14 15 15 15 14 10 15
8 7 9 12 13 13 13 12 12 12 12 13 12 12 13 13 13 14 13 13 13 14 14 14 14 14 14 14 14 14 14 14 13 13 12 6 8 14 14 14 14 14 14
9 7 8 11 13 13 13 12 11 11 12 12 12 12 12 12 13 13 13 12 12 12 13 13 13 12 12 13 12 12 12 12 12 11 6 5 5 12 13 13 13 13 13
7 7 8 12 13 13 13 12 11 11 11 11 11 11 11 11 12 12 12 11 11 11 11 12 11 11 11 11 11 11 11 11 11 8 5 5 4 10 12 12 12 12 12
7 7 9 12 13 13 12 12 11 11 11 11 11 11 10 11 11 11 11 10 10 10 10 10 10 10 10 10 10 10 10 10 8 5 4 4 3 8 10 10 10 10 10
7 6 8 11 11 12 12 12 11 11 11 10 10 10 10 10 10 10 10 10 9 9 9 9 9 8 8 8 8 8 8 8 5 4 3 3 3 7 8 9 8 9 9
8 7 7 10 10 10 10 10 10 10 10 10 10 10 9 9 9 9 9 9 9 8 8 8 7 7 7 7 7 7 6 6 4 3 2 3 3 6 6 7 7 7 7
7 7 6 6 7 9 10 9 9 9 9 9 9 9 8 7 8 7 7 8 8 8 7 6 6 5 5 5 6 6 5 5 3 1 1 2 2 3 4 4 4 5 5
7 7 6 6 5 5 6 8 9 9 8 8 8 8 7 7 6 6 5 5 7 7 6 5 4 4 4 4 4 4 4 4 2 1 1 2 2 1 2 2 2 2 3
8 7 7 7 6 5 5 7 7 8 8 8 7 8 7 4 3 3 4 4 5 5 5 5 4 3 2 3 3 3 3 1 0 1 1 3 3 2 1 1 0 0 0
11 10 7 8 7 6 5 4 4 4 4 4 4 5 4 3 3 3 4 4 4 4 4 4 3 1 2 1 1 2 1 0 0 1 2 6 5 5 4 3 3 3 2
10 10 9 8 8 7 5 4 3 3 3 4 5 5 4 3 2 2 1 2 2 2 1 1 1 0 0 0 0 1 1 1 1 2 3 7 8 8 7 6 5 5 5
10 10 10 9 8 8 6 5 5 4 4 4 5 5 4 3 3 3 2 2 2 2 2 1 1 1 1 2 2 2 2 2 2 2 3 8 9 9 9 9 8 8 7
11 11 11 10 10 9 8 6 6 6 5 5 5 5 5 4 4 4 3 3 3 2 3 2 2 3 3 3 3 3 4 4 4 4 3 7 9 11 12 12 11 10 10
12 12 10 11 11 10 9 8 7 6 6 6 6 6 7 5 5 5 4 4 4 4 4 3 4 3 3 3 4 4 5 5 5 5 4 6 10 12 13 14 14 14 13
11 10 11 12 11 11 11 10 7 6 6 7 7 7 8 7 6 6 5 5 5 4 4 3 3 3 3 3 5 5 5 5 5 6 6 5 5 9 13 16 16 16 16
9 10 11 10 12 13 11 9 7 7 7 7 6 7 9 9 8 6 6 6 5 4 4 4 4 3 4 4 4 5 4 5 7 7 6 6 6 6 9 15 17 17 18
11 10 11 11 12 13 11 8 8 7 8 7 7 7 8 9 9 7 6 5 5 5 5 5 5 4 4 5 5 5 5 6 7 7 8 8 8 7 6 10 14 15 18
10 10 11 11 12 10 8 6 6 7 8 7 8 8 9 8 9 8 6 6 6 5 6 5 6 5 4 4 4 6 7 7 7 8 9 8 7 8 8 7 7 9 15
9 10 12 12 12 9 7 8 9 10 9 8 8 9 10 10 10 9 7 7 7 7 7 7 6 6 5 3 3 5 6 7 9 8 7 7 8 7 7 8 7 6 6
11 11 11 12 12 12 11 8 6 5 5 6 6 8 10 11 11 9 10 8 8 7 8 8 7 5 4 5 3 2 5 5 4 6 6 7 7 5 7 8 7 8 7
10 12 11 13 13 13 11 5 3 3 2 4 7 8 10 11 11 11 11 9 8 9 8 9 9 9 7 5 6 5 4 5 4 4 4 5 5 5 6 5 8 8 8
11 10 11 11 11 11 11 9 10 10 10 10 7 6 7 9 10 11 10 10 10 9 9 9 9 8 8 7 5 7 7 4 3 5 4 3 5 6 6 6 7 8 8
9 8 9 9 9 10 11 13 12 12 10 6 4 5 6 7 9 10 10 10 10 10 10 9 9 10 9 9 7 5 7 7 7 7 9 5 4 5 6 7 7 7 8
6 6 6 7 8 8 10 11 12 13 11 7 7 7 6 5 6 9 10 10 10 10 10 10 10 11 10 10 9 7 6 6 6 8 10 9 8 5 6 6 7 7 7
Wind_Direction
167 171 152 141 135 129 124 120 118 115 114 111 109 108 106 103 101 99 97 96 96 96 94 92 90 88 85 83 81 79 77 75 74 74 75 77 76 75 73 70 67 63 70
150 158 149 144 138 133 128 125 124 121 119 116 112 110 109 107 104 103 101 100 100 99 98 96 94 92 89 87 86 83 80 76 74 70 67 67 73 73 71 69 71 70 70
141 147 145 144 139 136 133 131 129 126 123 120 116 114 113 111 109 107 106 106 105 104 103 101 98 94 93 91 90 87 82 78 75 69 59 42 64 73 71 68 68 69 68
141 142 145 143 142 141 139 136 133 129 126 125 122 120 118 117 115 113 111 110 110 110 107 104 101 97 96 94 92 89 85 82 74 65 46 36 47 73 71 69 66 65 65
137 139 145 145 146 146 144 141 138 134 132 131 129 125 124 123 119 117 116 115 116 114 111 107 104 100 96 95 93 91 89 84 72 59 42 36 39 74 73 70 68 65 62
138 140 149 149 151 150 148 147 144 142 140 137 134 130 129 128 125 123 123 123 122 119 115 110 107 102 98 97 96 95 94 87 68 51 40 29 31 74 77 75 71 67 64
143 143 153 153 153 154 153 152 151 149 146 143 138 134 133 133 132 131 131 131 129 125 120 115 110 104 100 100 99 98 97 92 78 58 38 18 41 76 77 74 71 68 64
149 148 154 154 154 157 158 157 156 154 151 148 144 141 141 141 142 140 140 139 136 133 129 122 115 111 106 104 100 97 95 93 80 59 37 9 48 78 79 73 70 66 63
150 151 153 155 158 162 162 161 160 157 155 153 150 145 144 144 145 144 144 147 148 145 141 133 121 117 113 108 102 96 91 92 83 48 18 349 8 69 79 73 71 67 62
160 163 161 158 158 161 163 166 164 161 159 156 151 146 145 143 141 143 146 154 160 158 154 148 135 125 116 109 103 97 92 84 80 30 340 311 326 45 67 75 76 62 59
179 179 174 170 168 165 166 171 168 167 167 159 154 153 144 135 135 139 157 165 169 167 167 166 160 136 99 87 91 93 88 81 83 292 292 290 287 270 272 268 225 295 29
190 190 185 182 178 173 174 165 165 166 165 160 156 154 147 147 153 155 174 183 183 180 183 187 188 148 90 60 43 60 75 208 256 268 274 282 275 264 260 261 254 253 254
193 192 192 189 184 181 177 170 171 168 166 167 168 166 157 154 158 159 160 181 188 191 189 207 210 121 132 194 251 264 246 243 250 263 273 279 276 266 262 263 257 253 254
193 199 196 192 190 189 184 182 182 182 183 186 184 176 167 169 179 182 185 189 187 186 195 201 206 229 241 245 246 252 250 244 246 252 263 271 273 270 265 264 263 255 253
201 203 199 194 196 192 190 192 193 194 195 194 190 190 185 184 190 192 196 198 201 195 199 210 221 234 246 253 253 248 251 250 249 248 258 265 268 268 267 267 266 260 256
208 207 200 199 199 196 198 199 199 198 197 196 199 199 196 195 193 193 200 203 208 205 204 207 218 230 244 249 258 254 252 253 252 250 248 259 262 263 264 266 267 264 260
211 206 203 203 199 201 203 203 202 200 198 203 205 203 202 201 198 198 202 209 211 206 207 213 224 232 248 250 257 257 254 251 252 251 248 246 253 257 258 261 265 265 262
211 207 207 204 202 205 206 204 204 202 203 209 207 206 207 207 202 200 207 214 206 200 205 215 220 231 242 247 256 258 253 252 252 251 248 245 242 246 251 255 259 261 262
213 210 207 205 205 206 206 204 205 203 207 210 208 210 209 208 205 206 212 212 197 202 211 217 219 219 239 246 253 260 256 253 253 251 249 245 241 241 241 252 252 252 256
215 210 210 208 208 204 200 200 205 211 214 213 212 213 208 208 206 209 215 210 198 208 216 216 224 220 231 243 261 267 262 255 252 249 250 249 243 240 238 240 244 246 248
213 209 209 208 206 195 194 201 207 216 216 215 216 212 208 208 206 210 216 211 206 215 220 215 217 224 230 203 255 280 270 249 247 248 244 244 246 242 236 236 236 237 245
214 213 212 211 206 200 203 201 199 197 207 214 212 212 210 210 208 211 216 216 210 216 220 217 213 220 220 185 199 268 300 305 271 246 241 239 244 239 238 237 234 235 236
218 216 214 213 209 206 202 182 171 169 184 199 212 217 215 211 211 214 216 217 215 215 225 222 216 220 230 209 198 204 236 264 303 284 245 240 239 236 241 239 237 236 236
223 218 214 213 210 206 195 191 193 202 213 218 214 214 210 208 214 216 217 217 220 221 227 225 218 222 225 231 212 217 225 219 261 299 284 249 238 237 239 239 239 238 235
223 216 211 207 207 202 197 200 202 213 222 221 204 207 210 210 213 216 218 220 223 225 228 225 220 220 223 230 222 209 224 233 229 252 279 281 262 237 233 234 235 237 235
222 211 206 201 207 202 196 200 205 213 217 214 211 214 216 214 215 218 220 223 227 228 229 229 226 225 226 229 229 222 214 221 220 230 255 271 275 260 235 229 232 235 234